Notices

What's New in latest Release from April 7th, 2021:

- Updated Glossary, including Speed of Maximum Gust, and Total Hourly Precipitation

- Updated national and regional climate services offices contacts and prices information

- Addition of station inventory lists for 1981-2010, 1971-2000, and 1961-1990 Normals.

Please note that as of June 10, 2021 UTC dates are available for all years 2004-present, and DBA is working on populating the remaining years (2003 to 1953).

If you haven't already, please take our survey and provide feedback about our website: https://eccc.sondage-survey.ca/f/LanguageSelection.aspx?s=442ca660-fcf1-47c0-95a9-59707d6fd709

Hourly Data Report for January 09, 2021

CARBERRY CS
MANITOBA
Current Station Operator: ECCC - MSC

49°54'20.900" N
99°21'26.800" W
383.50 m
5010547
71170
WZE

Download Data

Hourly Data (January 2021)
Hourly Data Report for January 9, 2021
TIME
LST
Temp Definition
°C
Dew Point Definition
°C
Rel Hum Definition
%
Precip. Amount Definition
mm

Wind Dir Definition
10's deg

Wind Spd Definition
km/h
Visibility Definition
km
Stn Press Definition
kPa
Hmdx Definition


Wind Chill Definition


Weather Definition


00:00 -11.4 -12.4 92 0.0 21 9   98.21   -17 LegendNANA
01:00 -12.4 -13.6 91 0.0 23 8   98.21   -17 LegendNANA
02:00 -12.7 -13.9 91 0.0 23 7   98.25   -17 LegendNANA
03:00 -12.5 -13.6 91 0.0 24 7   98.31   -17 LegendNANA
04:00 -12.5 -13.8 90 0.0 22 6   98.30   -16 LegendNANA
05:00 -12.9 -14.3 90 0.0 24 8   98.30   -18 LegendNANA
06:00 -11.4 -12.3 93 0.0 24 9   98.28   -17 LegendNANA
07:00 -11.4 -12.5 92 0.0 24 8   98.30   -16 LegendNANA
08:00 -12.0 -13.1 91 0.0 23 8   98.28   -17 LegendNANA
09:00 -11.6 -12.6 92 0.0 25 9   98.30   -17 LegendNANA
10:00 -11.6 -12.8 90 0.0 25 7   98.32   -16 LegendNANA
11:00 -10.6 -11.9 90 0.0 25 8   98.32   -15 LegendNANA
12:00 -9.6 -10.9 90 0.0 26 20   98.28   -17 LegendNANA
13:00 -7.9 -9.1 91 0.0 26 21   98.22   -15 LegendNANA
14:00 -6.9 -8.1 91 0.0 26 19   98.14   -14 LegendNANA
15:00 -6.8 -8.2 90 0.0 26 15   98.16   -13 LegendNANA
16:00 -7.2 -9.4 84 0.0 26 20   98.16   -14 LegendNANA
17:00 -8.0 -10.1 85 0.0 25 21   98.16   -16 LegendNANA
18:00 -8.5 -10.8 83 0.0 26 17   98.16   -15 LegendNANA
19:00 -9.1 -11.2 85 0.0 25 13   98.14   -15 LegendNANA
20:00 -9.9 -11.4 89 0.0 26 17   98.13   -17 LegendNANA
21:00 -10.6 -11.8 91 0.0 25 13   98.13   -17 LegendNANA
22:00 -10.8 -11.8 93 0.0 25 15   98.07   -18 LegendNANA
23:00 -10.4 -10.5 100 0.0 26 15   98.04   -17 LegendNANA

Notes on Data Quality.

Legend

  • E = Estimated
  • M = Missing
  • NA = Not Available*
  • [empty] = Indicates an unobserved value
Date modified: